[TLELIST] Archives

 

Current TLEs

January 30th 2008 PDT

HST 1 20580U 90037B 08027.78944807 +.00000263 +00000-0 +75345-5 0 00708 2 20580 028.4668 165.4119 0003235 318.4521 041.5821 15.00330344773725 ISS (ZARYA) 1 25544U 98067A 08029.43302741 .00024732 00000-0 14842-3 0 8105 2 25544 051.6427 017.0041 0005651 354.1896 143.5761 15.77611827526479 CXO 1 25867U 99040B 08030.04166667 .00000116 00000-0 10000-3 0 1632 2 25867 063.0704 084.0566 6589910 280.5924 354.6290 00.37805078 3108 ____________________________________________________________________ These 2-Line ...Continue Reading

Current TLEs

January 29th 2008 PDT

HST 1 20580U 90037B 08026.79162908 .00000260 00000-0 72752-5 0 584 2 20580 028.4667 171.9184 0003259 307.3183 052.7109 15.00330113773575 ISS (ZARYA) 1 25544U 98067A 08028.42214209 .00016893 00000-0 10305-3 0 8024 2 25544 051.6418 022.2238 0005362 345.5259 167.2043 15.77540422526312 CXO 1 25867U 99040B 08027.41666667 .00000127 00000-0 10000-3 0 1625 2 25867 063.0562 084.1004 6585034 280.6477 357.2134 00.37805194 3098 ____________________________________________________________________ These 2-Line ...Continue Reading

Current TLEs

January 28th 2008 PDT

HST 1 20580U 90037B 08026.79162908 .00000260 00000-0 72752-5 0 584 2 20580 028.4667 171.9184 0003259 307.3183 052.7109 15.00330113773575 ISS (ZARYA) 1 25544U 98067A 08027.40728675 .00014537 00000-0 89426-4 0 7953 2 25544 051.6403 027.4604 0005556 339.5657 165.7971 15.77495693526154 CXO 1 25867U 99040B 08027.41666667 .00000127 00000-0 10000-3 0 1625 2 25867 063.0562 084.1004 6585034 280.6477 357.2134 00.37805194 3098 ____________________________________________________________________ These 2-Line ...Continue Reading

Current TLEs

January 27th 2008 PDT

HST 1 20580U 90037B 08025.52772789 .00000314 00000-0 11505-4 0 575 2 20580 028.4677 180.1766 0003435 299.3039 060.7206 15.00330502773388 ISS (ZARYA) 1 25544U 98067A 08026.39446902 .00015274 00000-0 93875-4 0 7884 2 25544 051.6405 032.6898 0005270 335.3632 174.3918 15.77467005525993 CXO 1 25867U 99040B 08024.75000000 .00000124 00000-0 10000-3 0 1618 2 25867 063.0458 084.1724 6580718 280.6876 354.1134 00.37804949 3080 ____________________________________________________________________ These 2-Line ...Continue Reading

Current TLEs

January 26th 2008 PDT

HST 1 20580U 90037B 08023.86469684 +.00000326 +00000-0 +12420-4 0 00667 2 20580 028.4677 191.0219 0003500 281.0769 078.9429 15.00330025773134 ISS (ZARYA) 1 25544U 98067A 08025.37864881 .00014480 00000-0 89338-4 0 7822 2 25544 051.6396 037.9365 0005444 329.4162 167.7711 15.77431932525834 CXO 1 25867U 99040B 08024.75000000 .00000124 00000-0 10000-3 0 1618 2 25867 063.0458 084.1724 6580718 280.6876 354.1134 00.37804949 3080 ____________________________________________________________________ These 2-Line ...Continue Reading

Current TLEs

January 25th 2008 PDT

HST 1 20580U 90037B 08023.86469684 .00000326 00000-0 12420-4 0 566 2 20580 028.4677 191.0219 0003500 281.0769 078.9429 15.00330025773134 ISS (ZARYA) 1 25544U 98067A 08024.42212356 .00018692 00000-0 11421-3 0 7760 2 25544 051.6403 042.8677 0005448 324.6456 137.0630 15.77414905525685 CXO 1 25867U 99040B 08022.12500000 +.00000094 +00000-0 +10000-3 0 01607 2 25867 063.0424 084.2513 6573798 280.7370 356.7099 00.37798490003070 ____________________________________________________________________ These 2-Line ...Continue Reading

Current TLEs

January 24th 2008 PDT

HST 1 20580U 90037B 08022.80035702 .00000349 00000-0 14202-4 0 553 2 20580 028.4678 197.9660 0003571 269.1878 090.8302 15.00329856772970 ISS (ZARYA) 1 25544U 98067A 08023.41541556 .00019252 00000-0 11770-3 0 7697 2 25544 051.6408 048.0648 0005308 319.3908 181.7397 15.77378029525529 CXO 1 25867U 99040B 08022.12500000 .00000094 00000-0 10000-3 0 1595 2 25867 063.0424 084.2513 6573798 280.7370 356.7099 00.37798490 3070 ____________________________________________________________________ These 2-Line ...Continue Reading

Current TLEs

January 23rd 2008 PDT

HST 1 20580U 90037B 08020.87124125 +.00000365 +00000-0 +15468-4 0 00649 2 20580 028.4679 210.5455 0003637 248.2181 111.8021 15.00329199772683 ISS (ZARYA) 1 25544U 98067A 08022.20136510 .00020651 00000-0 12618-3 0 7634 2 25544 051.6401 054.3302 0005382 315.0141 127.5080 15.77334577525339 CXO 1 25867U 99040B 08022.12500000 .00000094 00000-0 10000-3 0 1595 2 25867 063.0424 084.2513 6573798 280.7370 356.7099 00.37798490 3070 ____________________________________________________________________ These 2-Line ...Continue Reading

Current TLEs

January 22nd 2008 PDT

HST 1 20580U 90037B 08020.93776245 .00000371 00000-0 15875-4 0 528 2 20580 028.4679 210.1113 0003619 248.7881 111.2324 15.00329271772694 ISS (ZARYA) 1 25544U 98067A 08021.11874253 .00022240 00000-0 13579-3 0 7538 2 25544 051.6398 059.9159 0005462 308.8944 102.0111 15.77295377525163 CXO 1 25867U 99040B 08022.12500000 .00000094 00000-0 10000-3 0 1595 2 25867 063.0424 084.2513 6573798 280.7370 356.7099 00.37798490 3070 ____________________________________________________________________ These 2-Line ...Continue Reading

Current TLEs

January 21st 2008 PDT

HST 1 20580U 90037B 08019.87342270 .00000369 00000-0 15706-4 0 515 2 20580 028.4681 217.0551 0003763 237.4358 122.5866 15.00328889772536 ISS (ZARYA) 1 25544U 98067A 08020.38179398 .00022347 00000-0 13662-3 0 7502 2 25544 051.6386 063.7180 0005453 305.6298 237.9041 15.77262132525044 CXO 1 25867U 99040B 08019.50000000 .00000121 00000-0 10000-3 0 1588 2 25867 063.0326 084.3052 6569186 280.8193 359.2675 00.37797552 3065 ____________________________________________________________________ These 2-Line ...Continue Reading
  • This mailing list is a public mailing list - anyone may join or leave, at any time.
  • This mailing list is announce-only.

International Space Station (ISS) / Hubble Space Telescope (HST) / Chandra X-Ray Observatory Orbital Data via EMAIL

Privacy Policy:

Private list